Home   Weather   Iqaluit   Past weeks
Flag for Canada

Past Weather in Iqaluit, Nunavut, Canada — Yesterday and Last 2 Weeks

Now
37 °F

Partly sunny.


Feels Like: 31 °F
Forecast: 38 / 28 °F
Wind: 8 mph from Southwest

Location: Iqaluit

Current Time: May 25, 2019 at 11:19:31 am

Latest Report: May 25, 2019 at 10:00 am


Visibility: 30 mi

Pressure: 30.07 "Hg

Humidity: 60%

Dew Point: 25 °F

Location of IqaluitLocation

Past Weather in Iqaluit — Graph

°F

Iqaluit Temperature Yesterday

Maximum temperature yesterday: 39 °F (at 5:00 pm)
Minimum temperature yesterday: 27 °F (at 1:00 am)
Average temperature yesterday: 33 °F

High & Low Weather Summary for the Past Weeks

 TemperatureHumidityPressure
High39 °F (May 13, 5:00 pm)100% (May 10, 11:31 pm)30.27 "Hg (May 10, 11:31 pm)
Low27 °F (May 24, 1:00 am)52% (May 24, 6:00 pm)29.77 "Hg (May 15, 7:11 pm)
Average33 °F89%30.10 "Hg
* Reported May 10 10:00 am — May 25 10:00 am, Iqaluit. Weather by CustomWeather, © 2019

Note: Actual official high and low records may vary slightly from our data, if they occured in-between our weather recording intervals... More about our weather records

Advertising

Iqaluit Weather History for the Previous 24 Hours

Scroll right to see more
 ConditionsComfort  
Time TempWeatherWind HumidityBarometerVisibility
10:00 am
Sat, May 25
37 °FPartly sunny.8 mph60%30.07 "Hg30 mi
9:00 am36 °FPartly sunny.3 mph60%30.08 "Hg30 mi
8:00 am36 °FPartly sunny.No wind65%30.07 "Hg30 mi
7:00 am34 °FPartly sunny.3 mph70%30.07 "Hg30 mi
6:00 am32 °FScattered clouds.No wind69%30.07 "Hg30 mi
5:00 am30 °FPassing clouds.3 mph75%30.07 "Hg30 mi
4:00 am28 °FPassing clouds.6 mph80%30.07 "Hg30 mi
3:00 am27 °FPassing clouds.5 mph80%30.07 "Hg30 mi
2:00 am27 °FPassing clouds.3 mph86%30.07 "Hg30 mi
1:00 am27 °FPassing clouds.2 mph86%30.06 "Hg30 mi
12:00 am30 °FPassing clouds.No wind80%30.06 "Hg30 mi
11:00 pm
Fri, May 24
30 °FPassing clouds.3 mph80%30.06 "Hg30 mi
10:00 pm32 °FPassing clouds.7 mph69%30.06 "Hg30 mi
9:00 pm34 °FPassing clouds.6 mph65%30.06 "Hg30 mi
8:00 pm36 °FPassing clouds.8 mph56%30.06 "Hg30 mi
7:00 pm37 °FScattered clouds.7 mph52%30.05 "Hg30 mi
6:00 pm39 °FPartly sunny.12 mph52%30.05 "Hg30 mi
5:00 pm39 °FPartly sunny.5 mph56%30.05 "Hg30 mi
4:00 pm37 °FPartly sunny.6 mph60%30.05 "Hg30 mi
3:00 pm37 °FPartly sunny.2 mph60%30.03 "Hg30 mi
2:00 pm37 °FBroken clouds.6 mph65%30.02 "Hg30 mi
1:00 pm36 °FPartly sunny.8 mph70%30.01 "Hg30 mi
12:00 pm36 °FPartly sunny.7 mph70%30.01 "Hg30 mi
11:00 am36 °FPartly sunny.7 mph70%30.00 "Hg30 mi
Weather by CustomWeather, © 2019

See weather overview